Regional Weather Roundup
Issued by NWS

Home | Current Version | Previous Version | Text Only | Print | Product List | Glossary On
Versions: 1 2 3 4 5 6 7 8 9 10 11 12 13 14 15 16 17 18 19 20 21 22 23 24 25 26 27 28 29 30 31 32 33 34 35 36 37 38 39 40 41 42 43 44 45 46 47 48 49 50
000
ASUS45 KREV 221610
RWRNV
NEVADA REGIONAL WEATHER ROUNDUP
NATIONAL WEATHER SERVICE RENO NV
900 AM PDT SUN OCT 22 2017

NOTE: "FAIR" INDICATES FEW OR NO CLOUDS BELOW 12,000 FEET WITH NO
SIGNIFICANT WEATHER AND/OR OBSTRUCTIONS TO VISIBILITY.

NVZ001-003-004-221700-
WESTERN NEVADA

CITY           SKY/WX    TMP DP  RH WIND       PRES   REMARKS
RENO           MOSUNNY   41  35  79 E3        30.45R
CARSON CITY    FAIR      41  34  75 CALM      30.46R
MINDEN         FAIR      36  32  87 CALM      30.46R
SLIDE MTN        N/A     46  18  31 NW2         N/A
FALLON         SUNNY     48  29  47 S3        30.42R
LOVELOCK       SUNNY     39  27  62 CALM      30.42R
HAWTHORNE      SUNNY     46  28  49 CALM      30.44R
$$

NVZ002-CAZ072-073-221700-
NORTHERN AND CENTRAL SIERRA

CITY           SKY/WX    TMP DP  RH WIND       PRES   REMARKS
S. LAKE TAHOE  SUNNY     33  30  88 S3        30.49R
TRUCKEE        FOG       28  28 100 CALM      30.51R VSB 1
SQUAW VLY 8000 NOT AVBL
BLUE CANYON    SUNNY     54  35  48 E3        30.45R
MAMMOTH LAKES  FAIR      38  26  63 CALM      30.53S
BRIDGEPORT     FAIR      31  25  78 CALM      30.50R
$$

NVZ030-031-036-221700-
NORTHERN NEVADA

CITY           SKY/WX    TMP DP  RH WIND       PRES   REMARKS
ELKO           MOSUNNY   39  30  70 S7        30.42R
WINNEMUCCA     MOSUNNY   54  35  48 S12       30.39R
WENDOVER       MOSUNNY   44  18  35 NE3       30.38R
$$

NVZ035-037-221700-
CENTRAL NEVADA

CITY           SKY/WX    TMP DP  RH WIND       PRES   REMARKS
ELY            SUNNY     38  25  59 S9        30.48R
EUREKA           N/A     45  29  53 S9        30.46R
$$

NVZ013-014-221700-
SOUTH CENTRAL NEVADA

CITY           SKY/WX    TMP DP  RH WIND       PRES   REMARKS
TONOPAH        MOSUNNY   45  26  47 N5        30.47R
$$

NVZ017-020-022-221700-
SOUTHERN NEVADA

CITY           SKY/WX    TMP DP  RH WIND       PRES   REMARKS
LAS VEGAS      SUNNY     64  18  17 CALM      30.34R
N. LAS VEGAS   SUNNY     64  19  17 N8        30.33R
NELLIS AFB     SUNNY     60  20  21 W6        30.33R
HENDERSON      SUNNY     64  23  21 CALM      30.36R
MERCURY        SUNNY     58  18  21 CALM      30.35S
$$



USA.gov is the U.S. government's official web portal to all federal, state and local government web resources and services.